COSMOS 374 DEB

Satellite information

Favourite Embed

Satellite Type and Status

DEBRISIN ORBIT

Key statistics

Satellite COSMOS 374 DEB at a glance.

Uptime

20141

Days in orbit

Revolutions

≈ 13.0

Per day

Orbit

LEO

Low Earth Orbit

Inclination

63.0

Latest

Satellite identification and parameters

Extended collection of information and parameters for COSMOS 374 DEB.

Object identification

Identified? True

Debris? True

Object name: COSMOS 374 DEB

International designator: 1970-089BS

Object number (NORAD): 5337

Object ID (CCSDS): 5337

Country: COMMONWEALTH OF INDEPENDENT STATES (CIS)

Current information (Y/N): Y

RCS size: SMALL

Orbital parameters

Period: 110.82 minutes

Inclination: 62.9619 deg

SMA: 7642.549 km

Apoapsis: 1843.014 km

Periapsis: 685.814 km

RAAN: 258.2206 deg

Eccentricy: 0.07570775

Argument of periapsis: 318.8811 deg

Mean anomaly: 35.7421 deg

Mean motion: 12.99407621 rev/day

Mean motion (dot): 0.00003122 rev/day2

B* drag term: 0.0027426062 1/REarth

Two-line elements (TLE)

Creation date: Dec. 10, 2025, 10:40 a.m.

Reference frame: TEME

Reference center: EARTH

Epoch: Dec. 9, 2025, 6:26 p.m. UTC

TLE line 0: 0 COSMOS 374 DEB

TLE line 1: 1 05337U 70089BS 25343.76813893 .00003122 00000-0 27426-2 0 9995

TLE line 2: 2 05337 62.9619 258.2206 0757077 318.8811 35.7421 12.99407621125888

Live tracking on map

Real-time ground track for satellite COSMOS 374 DEB.

In-orbit conjunctions

A list of the most updated potential collisions computed for object COSMOS 374 DEB.

Target Orbit TCA Probability of collision Miss distance Type
TRIAD 1 SSO 2025-04-12 09:33:19 0.0002029242 110.0 (m) PAYLOAD

Associated space launch

The I2P satellites were the first soviet coorbital ASAT system.

COSMOS 374 DEB was lifted into orbit during the mission ‘Tsiklon-2 | I2P 4’, on board a Tsiklon-2 space rocket.

The launch took place on Oct. 23, 1970, 4:42 a.m. from 90/20.

For more information about the launch, click the button.

Launch to space Tsiklon-2 | I2P 4
Tsiklon-2 | I2P 4

Agency: N/A

Status: Launch Successful

Launch date: Oct. 23, 1970, 4:42 a.m. UTC

Rocket: Tsiklon-2

Launch pad: 90/20

Location: Baikonur Cosmodrome, Republic of Kazakhstan

...

Latest news about this satellite

There are no fresh news available about this satellite. Check back as we update our databases every day.


Newsletter sign-up

Weekly statistics, charts and insights to help you stay on top of the space industry.